To NAV CANADA Home Page Login to a new session Search on AWWS site Feedback and Comments Disclaimer Vers la page française équivalente Tips FAQ What's new on the site To the Forecasts and Observations / NOTAM section To "File a Flight Plan" website Publications and other links Update of the User's profile FIC Telephone Numbers My Weather Data Folder Route Weather Data Regional Weather Data Local Weather Data To the Forecasts and Observations / NOTAM section
Request Generated 07/30/2016 at 03:25:06 UTC . Weather information available at that time is displayed.

METAR/TAF

WHALE COVE/NU    

LWIS CYXN 300300Z AUTO 19011KT 11/07 A2996=
LWIS CYXN 300200Z AUTO 19012KT 12/07 A2997=
LWIS CYXN 300100Z AUTO 19013KT 13/08 A2997=

CYXN - No TAF is issued for this station

Your time UTC time
Weather data provided by Environment Canada and NAV CANADA